Location: Saint-Gilles les Bains
(21.0539°S, 55.2287°E)
Time: 04:55:44
(UTC+04:00)

Hubble Space Telescope - Pass Details

Date: 20 April 2024
Orbit: 512 x 515 km, 28.5° (Epoch: 20 May)

Event Time Altitude Azimuth Distance (km) Brightness Sun altitude
Exits shadow 04:35:51 21° 144° (SE) 1,199 2.8 -27.8°
Drops below altitude 10° 04:37:40 10° 124° (SE) 1,750 4.0 -27.4°
Sets 04:40:07 0° 113° (ESE) 2,638 5.3 -26.8°
